Location: Franzen
(48.6167°N, 15.3833°E)
Time: 13:15:48
(UTC+00:00)

H-2A R/B - Pass Details

Date: 22 April 2021
Orbit: 575 x 597 km, 98.2° (Epoch: 16 May)

Event Time Altitude Azimuth Distance (km) Brightness Sun altitude
Rises 20:38:22 0° 16° (NNE) 2,852 7.5 -21.6°
Reaches altitude 10° 20:40:35 10° 20° (NNE) 1,946 6.5 -21.9°
Enters shadow 20:44:35 61° 87° (E) 682 3.5 -22.2°
